When you browse on this site, cookies collect data to enhance your experience and personalize the content and advertising you see.
Visit our Privacy Policy to learn more. By continuing to use the site, you agree to this use of cookies and data.
  • In Czech Republic
  • List of Countries
  • For 7 days
  • Water Temperature
  • Satellite Maps
  • Weather Map
  • Weather Widgets
  • user-avatar
    Login

    Hourly Weather Konopki

    Today, 14 December, Friday

    Time Temperature Precipitation Wind Pressure Humidity
    00:00 -2°C° 0 mm 3 mps 756 mmHg 83%
    01:00 -2°C° 0 mm 3 mps 756 mmHg 84%
    02:00 -2°C° 0 mm 3 mps 756 mmHg 84%
    03:00 -2°C° 0 mm 3 mps 756 mmHg 85%
    04:00 -2°C° 0 mm 3 mps 756 mmHg 85%
    05:00 -2°C° 0 mm 3 mps 756 mmHg 85%
    06:00 -2°C° 0 mm 3 mps 756 mmHg 86%
    07:00 -2°C° 0 mm 3 mps 756 mmHg 86%
    08:00 -2°C° 0 mm 3 mps 757 mmHg 85%
    09:00 -2°C° 0 mm 3 mps 757 mmHg 84%
    10:00 -1°C° 0 mm 3 mps 757 mmHg 83%
    11:00 -1°C° 0 mm 3 mps 757 mmHg 82%
    12:00 -1°C° 0 mm 3 mps 758 mmHg 81%
    13:00 -1°C° 0 mm 3 mps 758 mmHg 81%
    14:00 -1°C° 0 mm 3 mps 758 mmHg 82%
    15:00 -1°C° 0 mm 3 mps 758 mmHg 84%
    16:00 -1°C° 0 mm 2 mps 758 mmHg 86%
    17:00 -1°C° 0 mm 3 mps 758 mmHg 87%
    18:00 -2°C° 0 mm 3 mps 759 mmHg 87%
    19:00 -2°C° 0 mm 3 mps 759 mmHg 88%
    20:00 -2°C° 0 mm 3 mps 759 mmHg 89%
    21:00 -2°C° 0 mm 3 mps 759 mmHg 89%
    22:00 -2°C° 0 mm 3 mps 759 mmHg 90%
    23:00 -2°C° 0 mm 3 mps 760 mmHg 90%

    Tomorrow, 15 December, Saturday

    Time Temperature Precipitation Wind Pressure Humidity
    00:00 -2°C° 0 mm 2 mps 760 mmHg 91%
    01:00 -2°C° 0 mm 2 mps 760 mmHg 91%
    02:00 -2°C° 0 mm 2 mps 760 mmHg 91%
    03:00 -2°C° 0 mm 3 mps 760 mmHg 91%
    04:00 -2°C° 0 mm 3 mps 760 mmHg 90%
    05:00 -2°C° 0 mm 3 mps 760 mmHg 90%
    06:00 -2°C° 0 mm 3 mps 761 mmHg 89%
    07:00 -2°C° 0 mm 3 mps 761 mmHg 89%
    08:00 -2°C° 0 mm 3 mps 761 mmHg 86%
    09:00 -2°C° 0 mm 3 mps 761 mmHg 83%
    10:00 -1°C° 0 mm 3 mps 761 mmHg 81%
    11:00 -1°C° 0 mm 3 mps 761 mmHg 79%
    12:00 -1°C° 0 mm 3 mps 761 mmHg 78%
    13:00 -1°C° 0 mm 3 mps 761 mmHg 76%
    14:00 -2°C° 0 mm 3 mps 761 mmHg 78%
    15:00 -2°C° 0 mm 3 mps 761 mmHg 80%
    16:00 -2°C° 0 mm 3 mps 761 mmHg 82%
    17:00 -2°C° 0 mm 3 mps 761 mmHg 83%
    18:00 -3°C° 0 mm 4 mps 761 mmHg 83%
    19:00 -3°C° 0 mm 4 mps 761 mmHg 83%
    20:00 -3°C° 0 mm 4 mps 761 mmHg 82%
    21:00 -3°C° 0 mm 4 mps 760 mmHg 81%
    22:00 -3°C° 0 mm 4 mps 760 mmHg 80%
    23:00 -3°C° 0 mm 4 mps 760 mmHg 79%

    Day after tomorrow, 16 December, Sunday

    Time Temperature Precipitation Wind Pressure Humidity
    00:00 -3°C° 0 mm 4 mps 760 mmHg 78%
    01:00 -4°C° 0 mm 5 mps 760 mmHg 77%
    02:00 -4°C° 0 mm 5 mps 759 mmHg 77%
    03:00 -4°C° 0 mm 5 mps 759 mmHg 77%
    04:00 -4°C° 0 mm 5 mps 758 mmHg 77%
    05:00 -4°C° 0.2 mm 5 mps 758 mmHg 79%
    06:00 -5°C° 0.2 mm 6 mps 758 mmHg 81%
    07:00 -5°C° 0.2 mm 6 mps 758 mmHg 83%
    08:00 -5°C° 0.3 mm 6 mps 757 mmHg 83%
    09:00 -5°C° 0.3 mm 6 mps 757 mmHg 84%
    10:00 -6°C° 0.3 mm 7 mps 757 mmHg 85%
    11:00 -5°C° 0.2 mm 6 mps 757 mmHg 84%
    12:00 -5°C° 0.2 mm 6 mps 756 mmHg 84%
    13:00 -5°C° 0.2 mm 6 mps 756 mmHg 83%
    14:00 -5°C° 0.4 mm 6 mps 756 mmHg 85%
    15:00 -5°C° 0.4 mm 6 mps 755 mmHg 87%
    16:00 -5°C° 0.4 mm 6 mps 755 mmHg 89%
    17:00 -5°C° 0.5 mm 6 mps 755 mmHg 89%
    18:00 -5°C° 0.5 mm 6 mps 755 mmHg 90%
    19:00 -5°C° 0.5 mm 6 mps 755 mmHg 91%
    20:00 -5°C° 0.2 mm 6 mps 755 mmHg 91%
    21:00 -5°C° 0.2 mm 5 mps 755 mmHg 90%
    22:00 -5°C° 0.2 mm 5 mps 755 mmHg 90%
    23:00 -5°C° 0.1 mm 5 mps 755 mmHg 90%

    17 December, Monday

    Time Temperature Precipitation Wind Pressure Humidity
    00:00 -5°C° 0.1 mm 5 mps 755 mmHg 91%
    01:00 -5°C° 0.1 mm 5 mps 755 mmHg 91%
    02:00 -5°C° 0 mm 5 mps 754 mmHg 91%
    03:00 -4°C° 0 mm 4 mps 754 mmHg 91%
    04:00 -4°C° 0 mm 4 mps 754 mmHg 92%
    05:00 -4°C° 0 mm 4 mps 754 mmHg 92%
    06:00 -3°C° 0 mm 4 mps 754 mmHg 93%
    07:00 -2°C° 0 mm 3 mps 754 mmHg 93%
    08:00 -2°C° 0 mm 3 mps 754 mmHg 93%
    09:00 -2°C° 0 mm 3 mps 754 mmHg 93%
    10:00 -1°C° 0 mm 3 mps 755 mmHg 93%
    11:00 -1°C° 0 mm 3 mps 755 mmHg 93%
    12:00 -1°C° 0 mm 3 mps 755 mmHg 93%
    13:00 -1°C° 0 mm 3 mps 755 mmHg 94%
    14:00 -1°C° 0.1 mm 3 mps 755 mmHg 94%
    15:00 -1°C° 0.1 mm 2 mps 755 mmHg 95%
    16:00 -2°C° 0.1 mm 2 mps 755 mmHg 95%
    17:00 -2°C° 0 mm 2 mps 756 mmHg 95%
    18:00 -2°C° 0 mm 2 mps 756 mmHg 95%
    19:00 -3°C° 0 mm 2 mps 756 mmHg 95%
    20:00 -3°C° 0 mm 2 mps 756 mmHg 95%
    21:00 -3°C° 0 mm 2 mps 757 mmHg 95%
    22:00 -3°C° 0 mm 2 mps 757 mmHg 94%
    23:00 -2°C° 0 mm 1 mps 757 mmHg 94%

    18 December, Tuesday

    Time Temperature Precipitation Wind Pressure Humidity
    00:00 -2°C° 0 mm 1 mps 758 mmHg 94%
    01:00 -2°C° 0 mm 1 mps 758 mmHg 94%
    02:00 -2°C° 0 mm 1 mps 758 mmHg 94%
    03:00 -2°C° 0 mm 1 mps 758 mmHg 95%
    04:00 -2°C° 0 mm 1 mps 758 mmHg 95%
    05:00 -2°C° 0 mm 1 mps 758 mmHg 95%
    06:00 -2°C° 0 mm 1 mps 759 mmHg 95%
    07:00 -2°C° 0 mm 1 mps 759 mmHg 95%
    08:00 -1°C° 0 mm 1 mps 759 mmHg 94%
    09:00 -1°C° 0 mm 1 mps 759 mmHg 93%
    10:00 0°C° 0 mm 1 mps 760 mmHg 93%
    11:00 -2°C° 0 mm 2 mps 760 mmHg 92%
    12:00 -2°C° 0 mm 2 mps 759 mmHg 92%
    13:00 -1°C° 0 mm 2 mps 759 mmHg 92%
    14:00 -2°C° 0 mm 2 mps 759 mmHg 93%
    15:00 -3°C° 0 mm 2 mps 759 mmHg 94%
    16:00 -3°C° 0 mm 2 mps 759 mmHg 95%
    17:00 -3°C° 0 mm 2 mps 759 mmHg 95%
    18:00 -3°C° 0 mm 2 mps 759 mmHg 95%
    19:00 -4°C° 0 mm 2 mps 759 mmHg 95%
    20:00 -4°C° 0 mm 2 mps 759 mmHg 95%
    21:00 -4°C° 0 mm 2 mps 759 mmHg 95%
    22:00 -5°C° 0 mm 3 mps 759 mmHg 95%
    23:00 -5°C° 0 mm 3 mps 759 mmHg 95%

    19 December, Wednesday

    Time Temperature Precipitation Wind Pressure Humidity
    00:00 -5°C° 0 mm 3 mps 759 mmHg 95%
    01:00 -5°C° 0 mm 3 mps 758 mmHg 95%
    02:00 -5°C° 0 mm 3 mps 758 mmHg 95%
    03:00 -5°C° 0 mm 4 mps 758 mmHg 95%
    04:00 -5°C° 0 mm 4 mps 758 mmHg 95%
    05:00 -5°C° 0 mm 4 mps 757 mmHg 94%
    06:00 -6°C° 0 mm 5 mps 757 mmHg 93%
    07:00 -6°C° 0 mm 5 mps 757 mmHg 93%
    08:00 -6°C° 0 mm 6 mps 757 mmHg 92%
    09:00 -5°C° 0 mm 6 mps 757 mmHg 91%
    10:00 -5°C° 0 mm 6 mps 756 mmHg 90%
    11:00 -5°C° 0 mm 6 mps 756 mmHg 89%
    12:00 -4°C° 0 mm 6 mps 755 mmHg 88%
    13:00 -4°C° 0 mm 6 mps 755 mmHg 87%
    14:00 -4°C° 0 mm 6 mps 754 mmHg 88%
    15:00 -4°C° 0 mm 6 mps 754 mmHg 88%
    16:00 -5°C° 0 mm 6 mps 753 mmHg 88%
    17:00 -5°C° 0 mm 6 mps 753 mmHg 89%
    18:00 -5°C° 0 mm 6 mps 753 mmHg 90%
    19:00 -5°C° 0 mm 6 mps 753 mmHg 90%
    20:00 -5°C° 0 mm 6 mps 752 mmHg 90%
    21:00 -4°C° 0 mm 6 mps 752 mmHg 90%
    22:00 -4°C° 0 mm 6 mps 752 mmHg 91%
    23:00 -4°C° 0 mm 5 mps 752 mmHg 91%
    Show more